# From MPC 57949 4P/Faye,e,9.0341,199.2930,204.9800,3.846103,0.1306690,0.56676563,71.2901,05/14.0/2008,2000,g 8.0,6.0 # From MPEC 2008-J23 6P/d'Arrest,e,19.5140,138.9378,178.1252,3.495654,0.1508035,0.61281365,345.9760,05/14.0/2008,2000,g 7.5,16.0 # From MPC 54170 7P/Pons-Winnecke,e,22.3103,93.4231,172.3272,3.432347,0.1549949,0.63485794,338.9775,05/14.0/2008,2000,g 10.0,6.0 # From MPC 61707 8P/Tuttle,e,54.9828,270.3412,207.5060,5.700233,0.0724211,0.81980805,7.8199,05/14.0/2008,2000,g 8.0,8.0 # From MPC 45657 9P/Tempel,e,10.5287,68.9337,178.9199,3.123580,0.1785357,0.51725133,186.3091,05/14.0/2008,2000,g 5.5,10.0 # From MPC 59600 10P/Tempel,e,12.0239,117.8372,195.5694,3.070216,0.1832106,0.53607978,216.7626,05/14.0/2008,2000,g 5.0,10.0 # From MPC 54168 11P/Tempel-Swift-LINEAR,e,13.5532,240.5262,163.8984,3.414047,0.1562428,0.54494921,1.4723,05/14.0/2008,2000,g 17.0,4.0 # From MPC 56802 14P/Wolf,e,27.9364,202.1519,158.9025,4.246694,0.1126231,0.35846217,327.4515,05/14.0/2008,2000,g 5.5,12.0 # From MPC 54169 15P/Finlay,e,6.8143,13.8248,347.4762,3.481473,0.1517258,0.72137189,353.9984,05/14.0/2008,2000,g 12.0,4.0 # From MPC 54168 16P/Brooks,e,4.2583,159.3750,219.4711,3.353703,0.1604786,0.56268895,5.0398,05/14.0/2008,2000,g 7.5,10.0 # From MPC 51822 17P/Holmes,e,19.1134,326.8586,24.2856,3.619055,0.1431566,0.43266776,53.7454,05/14.0/2008,2000,g 10.0,6.0 # From MPC 60665 19P/Borrelly,e,30.3245,75.4445,353.3798,3.607423,0.1438496,0.62444800,350.0267,05/14.0/2008,2000,g 4.5,10.0 # From MPC 56803 22P/Kopff,e,4.7239,120.8979,162.7903,3.462542,0.1529718,0.54425725,302.4251,05/14.0/2008,2000,g 3.0,10.4 # From MPC 62583 26P/Grigg-Skjellerup,e,22.3562,211.7058,1.7153,3.042886,0.1856844,0.63300927,9.5277,05/14.0/2008,2000,g 12.0,16.0 # From MPC 42666 29P/Schwassmann-Wachmann,e,9.3940,312.6364,47.9099,5.986327,0.0672920,0.04478683,95.3902,05/14.0/2008,2000,g 4.0,4.0 # From MPC 59600 31P/Schwassmann-Wachmann,e,4.5475,114.1887,18.2346,4.235888,0.1130544,0.19210006,261.6086,05/14.0/2008,2000,g 5.0,8.0 # From MPC 40670 36P/Whipple,e,9.9352,182.3904,201.9772,4.164637,0.1159680,0.25816799,206.0189,05/14.0/2008,2000,g 8.5,6.0 # From MPC 60465 44P/Reinmuth,e,5.9047,286.6006,58.0733,3.684554,0.1393563,0.42831608,11.9470,05/14.0/2008,2000,g 8.3,6.0 # From MPC 60466 46P/Wirtanen,e,11.7391,82.1738,356.3433,3.093076,0.1811833,0.65812101,18.3916,05/14.0/2008,2000,g 9.0,6.0 # From MPC 56802 47P/Ashbrook-Jackson,e,13.0438,357.0187,357.5833,4.118252,0.1179328,0.32029491,329.0277,05/14.0/2008,2000,g 1.0,11.2 # From MPC 45656 49P/Arend-Rigaux,e,19.0763,118.9911,333.2136,3.540577,0.1479425,0.60660535,174.9273,05/14.0/2008,2000,g 11.3,4.4 # From MPC 60466 50P/Arend,e,19.1551,355.3306,49.0430,4.088276,0.1192322,0.52931735,23.2286,05/14.0/2008,2000,g 9.5,6.0 # From MPC 54169 51P/Harrington,e,5.4254,83.7652,269.1929,3.704903,0.1382098,0.54447811,354.9669,05/14.0/2008,2000,g 11.5,8.0 # From MPC 54171 57P/du Toit-Neujmin-Delporte,e,2.8482,188.8430,115.3152,3.447965,0.1539430,0.50007700,325.2014,05/14.0/2008,2000,g 12.5,6.0 # From MPC 56803 59P/Kearns-Kwee,e,9.3410,313.0380,127.5402,4.485194,0.1037605,0.47481599,329.1107,05/14.0/2008,2000,g 7.0,6.0 # From MPC 54170 61P/Shajn-Schaldach,e,6.0090,163.1185,221.6146,3.675866,0.1398507,0.42651752,343.9058,05/14.0/2008,2000,g 6.0,10.0 # From MPC 59598 65P/Gunn,e,10.3855,68.3787,196.4956,3.588659,0.1449792,0.31971627,264.7943,05/14.0/2008,2000,g 5.0,6.0 # From MPC 56802 67P/Churyumov-Gerasimenko,e,7.0415,50.2327,12.6109,3.467529,0.1526420,0.64032550,315.6872,05/14.0/2008,2000,g 11.0,4.0 # From MPC 56802 68P/Klemola,e,11.1437,175.3517,153.9977,4.892295,0.0910825,0.64054115,337.0427,05/14.0/2008,2000,g 10.0,4.0 # From MPC 51823 70P/Kojima,e,6.5957,119.2599,2.0963,3.678405,0.1397059,0.45305848,30.8888,05/14.0/2008,2000,g 11.0,6.0 # From MPC 56804 74P/Smirnova-Chernykh,e,6.6484,77.1140,87.3430,4.174128,0.1155727,0.14783219,308.8007,05/14.0/2008,2000,g 5.0,6.0 # From MPC 56804 77P/Longmore,e,24.3948,14.9274,196.6703,3.600815,0.1442457,0.35841557,299.4506,05/14.0/2008,2000,g 7.0,8.0 # From MPC 61438 79P/du Toit-Hartley,e,2.8933,307.8391,253.2743,3.030778,0.1867983,0.59399632,357.3058,05/14.0/2008,2000,g 16.0,4.0 # From MPC 59598 81P/Wild,e,3.2375,136.1062,41.8493,3.452375,0.1536481,0.53753455,260.1709,05/14.0/2008,2000,g 7.0,6.0 # From MPC 59598 82P/Gehrels,e,1.1267,239.5163,226.5311,4.135224,0.1172075,0.12158258,288.5115,05/14.0/2008,2000,g 5.0,8.0 # From MPC 54171 85P/Boethin,e,4.2157,343.4713,53.5433,5.112765,0.0852551,0.77555491,341.5571,05/14.0/2008,2000,g 6.5,8.0 # From MPC 54168 86P/Wild,e,15.4478,72.5835,179.1527,3.629477,0.1425404,0.36598204,359.1446,05/14.0/2008,2000,g 11.0,6.0 # From MPC 51823 87P/Bus,e,2.5770,182.1165,24.2804,3.488016,0.1512991,0.37719963,47.1667,05/14.0/2008,2000,g 7.2,10.0 # From MPC 56805 88P/Howell,e,4.3814,56.7748,235.9005,3.114274,0.1793365,0.56195011,267.3854,05/14.0/2008,2000,g 11.0,6.0 # From MPC 56804 89P/Russell,e,12.0315,42.3958,249.2856,3.795059,0.1333142,0.39905512,298.6574,05/14.0/2008,2000,g 11.5,6.0 # From MPC 51824 93P/Lovas,e,12.2184,339.9211,74.6658,4.391497,0.1070989,0.61182074,15.9211,05/14.0/2008,2000,g 9.5,6.0 # From MPC 51821 99P/Kowal,e,4.3378,28.3585,173.3777,6.126527,0.0649954,0.22933473,31.1564,05/14.0/2008,2000,g 4.5,6.0 # From MPC 54167 110P/Hartley,e,11.6796,287.7456,167.7874,3.619681,0.1431195,0.31252698,14.3918,05/14.0/2008,2000,g 1.0,12.0 # From MPC 54168 113P/Spitaler,e,5.7753,14.4725,49.8465,3.689355,0.1390844,0.42306710,7.1763,05/14.0/2008,2000,g 13.5,4.0 # From MPC 62583 116P/Wild,e,3.6128,21.0462,173.5925,3.478640,0.1519112,0.37489110,294.5487,05/14.0/2008,2000,g 2.5,10.0 # From MPC 45658 117P/Helin-Roman-Alu,e,8.7067,58.9433,222.8810,4.083948,0.1194218,0.25577675,104.5097,05/14.0/2008,2000,g 2.5,8.0 # From MPC 52907 119P/Parker-Hartley,e,5.1888,244.0809,181.2146,4.286285,0.1110663,0.29017929,120.7138,05/14.0/2008,2000,g 3.5,8.0 # From MPC 54168 124P/Mrkos,e,31.3407,1.3523,181.3695,3.208907,0.1714622,0.54234473,2.8787,05/14.0/2008,2000,g 13.5,2.8 # From MPC 51822 128P/Shoemaker-Holt,e,4.3550,214.4093,210.4210,4.512550,0.1028185,0.31998882,34.4971,05/14.0/2008,2000,g 8.5,4.0 # From MPC 50140 129P/Shoemaker-Levy,e,5.2857,301.3657,187.3558,3.773286,0.1344697,0.25991717,140.2319,05/14.0/2008,2000,g 11.0,4.0 # From MPC 52907 131P/Mueller,e,7.3518,214.2146,179.6862,3.681036,0.1395561,0.34210399,173.6412,05/14.0/2008,2000,g 11.0,4.0 # From MPC 51822 135P/Shoemaker-Levy,e,6.0499,213.2092,22.1236,3.822637,0.1318741,0.29129827,46.1650,05/14.0/2008,2000,g 7.0,8.0 # From MPC 60282 136P/Mueller,e,9.4272,137.5572,224.8791,4.188558,0.1149760,0.29314927,23.5379,05/14.0/2008,2000,g 11.0,4.0 # From MPC 56803 137P/Shoemaker-Levy,e,4.8602,233.2315,140.7507,4.508270,0.1029649,0.57562344,322.4747,05/14.0/2008,2000,g 11.0,4.0 # From MPC 60666 139P/Vaisala-Oterma,e,2.3297,242.4525,165.5200,4.516321,0.1026897,0.24655638,2.5326,05/14.0/2008,2000,g 9.5,4.0 # From MPC 59599 142P/Ge-Wang,e,12.3023,176.5548,175.9093,4.961302,0.0891889,0.49879840,293.3350,05/14.0/2008,2000,g 8.5,6.0 # From MPC 56803 143P/Kowal-Mrkos,e,4.6899,245.3839,320.7308,4.303496,0.1104007,0.41022209,316.4900,05/14.0/2008,2000,g 13.5,2.0 # From MPC 54168 146P/Shoemaker-LINEAR,e,23.0796,53.5713,316.8314,4.026796,0.1219732,0.64799304,359.1004,05/14.0/2008,2000,g 15.0,4.0 # From MPC 60927 148P/Anderson-LINEAR,e,3.6784,89.8037,6.6832,3.684772,0.1393440,0.53789228,358.7791,05/14.0/2008,2000,g 16.0,2.0 # From MPC 54170 150P/LONEOS,e,18.5008,272.4303,245.6773,3.892831,0.1283233,0.54593214,334.8472,05/14.0/2008,2000,g 13.5,4.0 # From MPC 51823 156P/Russell-LINEAR,e,20.7477,39.0415,357.6699,3.601247,0.1442198,0.55770335,47.8293,05/14.0/2008,2000,g 15.5,2.0 # From MPC 59598 157P/Tritton,e,7.2613,300.1381,148.0328,3.437729,0.1546310,0.59914285,259.8746,05/14.0/2008,2000,g 10.0,4.0 # From MPC 50356 158P/Kowal-LINEAR,e,7.9084,137.3075,232.0386,4.720287,0.0961062,0.02870962,207.0111,05/14.0/2008,2000,g 9.0,4.0 # From MPC 50461 159P/LONEOS,e,23.4295,55.1328,4.7772,5.878128,0.0691585,0.37963872,106.1487,05/14.0/2008,2000,g 10.0,4.0 # From MPC 54366 166P/NEAT,e,15.3780,64.4766,321.4528,13.81888,0.0191865,0.38142186,42.0890,05/14.0/2008,2000,g 5.5,4.0 # From MPC 54367 167P/CINEOS,e,19.0884,295.7695,344.3701,16.25308,0.0150418,0.27399973,38.5858,05/14.0/2008,2000,g 9.5,2.0 # From MPC 56805 169P/NEAT,e,11.3006,176.2044,217.9764,2.604579,0.2344757,0.76678154,227.4285,05/14.0/2008,2000,g 16.0,2.0 # From MPC 54825 172P/Yeung,e,11.5176,40.0897,178.9809,3.511206,0.1498027,0.36189451,337.2616,05/14.0/2008,2000,g 13.0,4.0 # From MPC 54987 173P/Mueller,e,16.4958,100.5697,29.8349,5.704098,0.0723475,0.26114901,359.6728,05/14.0/2008,2000,g 7.5,4.0 # From MPC 55982 174P/Echeclus,e,4.3389,173.3475,162.4069,10.76893,0.0278898,0.45732465,289.4299,05/14.0/2008,2000,g 9.5,2.0 # From MPO 87922 176P/LINEAR,e,0.2379,346.5353,35.9989,3.193863,0.1726751,0.19285987,162.1588,05/14.0/2008,2000,g 15.0,2.0 # From MPC 57949 179P/Jedicke,e,19.8752,115.8490,295.4461,5.906348,0.0686634,0.30806096,11.2016,05/14.0/2008,2000,g 2.5,8.0 # From MPC 62583 180P/NEAT,e,16.9136,84.7526,94.9156,3.843146,0.1308199,0.35763792,358.3361,05/14.0/2008,2000,g 11.0,4.0 # From MPC 57949 181P/Shoemaker-Levy,e,16.9289,37.8460,333.5581,3.843068,0.1308239,0.70682191,70.1126,05/14.0/2008,2000,g 11.5,4.0 # From MPC 58540 183P/Korlevic-Juric,e,18.7306,5.8431,161.6770,4.505971,0.1030437,0.13581798,0.5032,05/14.0/2008,2000,g 12.5,2.0 # From MPC 59045 186P/Garradd,e,28.8445,327.8488,278.7798,4.836978,0.0926495,0.11856316,5.0251,05/14.0/2008,2000,g 7.5,4.0 # From MPC 62583 187P/LINEAR,e,13.7325,112.0017,131.9408,4.451363,0.1049457,0.17031768,344.7580,05/14.0/2008,2000,g 9.0,4.0 # From MPC 60099 188P/LINEAR-Mueller,e,10.5456,359.1465,26.4405,4.370334,0.1078778,0.41603306,16.1653,05/14.0/2008,2000,g 11.5,4.0 # From MPC 60282 190P/Mueller,e,2.1900,336.1119,49.7350,4.240344,0.1128762,0.52085118,35.0808,05/14.0/2008,2000,g 13.0,4.0 # From MPC 60666 191P/McNaught,e,8.7613,106.5270,274.1706,3.532130,0.1484736,0.42021761,36.2104,05/14.0/2008,2000,g 13.0,4.0 # From MPC 60927 192P/Shoemaker-Levy,e,24.5604,51.6496,312.8472,6.451119,0.0601522,0.77367116,8.9421,05/14.0/2008,2000,g 15.0,4.0 # From MPC 60928 193P/LINEAR-NEAT,e,10.7041,335.2570,8.2918,3.568820,0.1461898,0.39594515,12.2053,05/14.0/2008,2000,g 14.0,4.0 # From MPC 61438 194P/LINEAR,e,11.1186,352.0623,130.6398,4.012538,0.1226239,0.57414890,9.5420,05/14.0/2008,2000,g 16.0,4.0 # From MPC 61438 195P/Hill,e,36.3657,243.2590,249.6426,6.479137,0.0597624,0.31496890,344.9193,05/14.0/2008,2000,g 8.5,4.0 # From MPC 61996 196P/Tichy,e,19.3780,24.3410,11.7166,3.776471,0.1342996,0.43389886,13.0062,05/14.0/2008,2000,g 13.5,4.0 # From MPC 62272 197P/LINEAR,e,25.5549,66.3890,188.7935,2.866176,0.2031187,0.63001741,358.9808,05/14.0/2008,2000,g 16.5,2.0 # From MPC 56803 P/1994 J3 (Shoemaker),e,24.7670,92.9467,191.9497,5.955862,0.0678090,0.50714331,337.5570,05/14.0/2008,2000,g 10.0,4.0 # From MPC 61436 C/1995 O1 (Hale-Bopp),e,89.2176,282.9469,130.6933,183.0106,0.0003981,0.99497362,0.0000,03/30.8303/1997,2000,g -2.0,4.0 # From MPC 35205 P/1997 T3 (Lagerkvist-Carsenty),e,4.8407,63.1426,333.5383,6.675669,0.0571428,0.36261202,214.1227,05/14.0/2008,2000,g 13.0,2.0 # From MPC 54170 P/1997 V1 (Larsen),e,12.1219,234.8151,133.7735,4.908416,0.0906342,0.33336686,350.4517,05/14.0/2008,2000,g 9.0,4.0 # From MPC 51822 P/1998 QP54 (LONEOS-Tucker),e,17.7122,341.8006,30.3424,4.198087,0.1145848,0.55223705,42.1428,05/14.0/2008,2000,g 15.0,2.0 # From MPC 48380 P/1998 U4 (Spahr),e,31.4910,181.6502,251.7745,5.584355,0.0746869,0.30935537,252.2287,05/14.0/2008,2000,g 8.0,4.0 # From MPC 54169 P/1998 VS24 (LINEAR),e,5.0263,159.1849,244.3746,4.516139,0.1026959,0.24214832,358.9040,05/14.0/2008,2000,g 13.0,2.0 # From MPC 59598 P/1999 WJ7 (Korlevic),e,2.9761,290.5624,154.5481,4.643005,0.0985157,0.31446718,297.3743,05/14.0/2008,2000,g 14.5,2.0 # From MPC 54170 P/1999 XN120 (Catalina),e,5.0263,285.4484,161.6505,4.185636,0.1150964,0.21063610,338.9680,05/14.0/2008,2000,g 13.5,2.0 # From MPC 44030 P/2000 Y3 (Scotti),e,2.2569,354.5068,87.7061,4.991932,0.0883692,0.20004672,243.2894,05/14.0/2008,2000,g 9.0,4.0 # From MPC 54170 P/2001 CV8 (LINEAR),e,9.0353,359.8958,151.6072,3.886535,0.1286353,0.44425443,340.6575,05/14.0/2008,2000,g 13.0,4.0 # From MPC 52163 C/2001 Q4 (NEAT),h,05/16.1542/2004,99.5533,210.3342,1.3124,1.001021,0.965151,2000,3.5,4.0 # From MPC 54169 P/2001 R1 (LONEOS),e,7.0326,35.3006,24.9617,3.463301,0.1529215,0.61163806,347.2798,05/14.0/2008,2000,g 14.0,4.0 # From MPC 51367 P/2001 YX127 (LINEAR),e,7.9178,31.0687,115.1246,4.162779,0.1160457,0.17627875,220.8001,05/14.0/2008,2000,g 14.5,2.0 # From MPC 56802 P/2002 CW134 (LINEAR),e,15.2130,348.2635,190.2690,3.607144,0.1438662,0.48888135,325.9140,05/14.0/2008,2000,g 13.0,4.0 # From MPC 51367 C/2002 J5 (LINEAR),h,09/20.5785/2003,117.2671,314.0845,75.0274,1.000533,5.740387,2000,11.0,2.0 # From MPC 56802 P/2002 JN16 (LINEAR),e,11.4186,230.0358,39.6845,3.478814,0.1518998,0.48721713,321.1014,05/14.0/2008,2000,g 14.5,4.0 # From MPC 52905 C/2002 L9 (NEAT),h,04/07.1449/2004,68.4531,110.3863,231.5035,1.000096,7.035150,2000,8.5,2.0 # From MPC 59599 P/2002 LZ11 (LINEAR),e,11.5235,231.1006,107.8536,3.651145,0.1412734,0.35245468,266.5178,05/14.0/2008,2000,g 11.0,4.0 # From MPC 59599 P/2002 O8 (NEAT),e,12.7892,75.4538,222.2096,4.023519,0.1221223,0.20068901,267.8789,05/14.0/2008,2000,g 11.0,4.0 # From MPC 56803 P/2002 Q1 (Van Ness),e,36.2769,174.0139,185.0323,3.556627,0.1469422,0.56395333,314.3023,05/14.0/2008,2000,g 13.0,4.0 # From MPC 52164 C/2002 T7 (LINEAR),h,04/22.3101/2004,160.5215,95.1627,158.1274,1.000493,0.619940,2000,4.0,4.0 # From MPC 59874 C/2002 VQ94 (LINEAR),e,70.5315,35.0027,100.0793,192.3244,0.0003695,0.96465306,0.3057,05/14.0/2008,2000,g 9.5,2.0 # From MPC 48381 C/2003 A2 (Gleason),h,11/07.7628/2003,8.0711,154.5749,346.7739,1.000407,11.429961,2000,3.5,4.0 # From MPC 48921 P/2003 CP7 (LINEAR-NEAT),e,12.3297,133.1054,42.7826,4.018929,0.1223316,0.24656359,225.5290,05/14.0/2008,2000,g 14.5,2.0 # From MPC 52315 C/2003 K4 (LINEAR),h,10/14.1994/2004,134.1715,18.7156,198.4773,1.000701,1.022379,2000,3.5,4.0 # From MPC 56169 C/2003 WT42 (LINEAR),h,04/10.5695/2006,31.4174,48.4419,92.4847,1.000611,5.191628,2000,9.0,2.0 # From MPC 60921 P/2004 A1 (LONEOS),e,10.5510,124.9764,22.0178,7.964077,0.0438532,0.31102087,58.9610,05/14.0/2008,2000,g 6.5,4.0 # From MPC 57131 C/2004 B1 (LINEAR),h,02/07.6912/2006,114.1022,272.8061,327.9299,1.000984,1.603960,2000,10.5,2.0 # From MPC 56169 C/2004 D1 (NEAT),e,45.5416,62.2487,75.5617,12085,0.0000007,0.99958826,0.0000,02/10.6281/2006,2000,g 11.5,2.0 # From MPC 57793 P/2004 F3 (NEAT),e,15.9866,78.8196,176.3942,4.019988,0.1222832,0.28648676,149.7691,05/14.0/2008,2000,g 9.0,4.0 # From MPC 54823 P/2004 FY140 (LINEAR),e,2.1269,327.1844,239.7171,4.935178,0.0898979,0.16723491,123.9248,05/14.0/2008,2000,g 12.5,2.0 # From MPC 54823 C/2004 L2 (LINEAR),e,62.5290,99.1654,257.3360,1021,0.0000302,0.99629942,0.0000,11/15.4211/2005,2000,g 7.0,4.0 # From MPC 53465 P/2004 V5 (LINEAR-Hill),e,19.3458,47.8548,88.2037,7.980276,0.0437197,0.44544676,51.0446,05/14.0/2008,2000,g 8.0,4.0 # From MPC 54164 C/2005 B1 (Christensen),h,02/23.5975/2006,92.5207,195.5551,103.1812,1.000747,3.204600,2000,6.5,4.0 # From MPC 58118 C/2005 E2 (McNaught),h,02/24.0190/2006,17.0278,347.8039,39.9769,1.000616,1.516878,2000,5.5,4.0 # From MPC 61702 C/2005 EL173 (LONEOS),h,03/05.7648/2007,130.6743,344.8102,261.4868,1.003091,3.886090,2000,11.5,2.0 # From MPC 56954 C/2005 K1 (Skiff),h,11/20.9018/2005,77.7563,106.3052,134.9665,1.001863,3.695125,2000,7.0,4.0 # From MPC 54559 P/2005 L1 (McNaught),e,7.7353,138.3126,149.7850,3.977550,0.1242455,0.20914618,109.5587,05/14.0/2008,2000,g 9.5,4.0 # From MPC 59596 C/2005 L3 (McNaught),e,139.4494,288.7399,47.1176,11827,0.0000008,0.99952706,0.0000,01/16.1903/2008,2000,g 4.0,4.0 # From MPC 61702 C/2005 Q1 (LINEAR),h,08/24.4113/2005,105.1957,87.7479,44.6310,1.002042,6.406870,2000,6.0,4.0 # From MPC 57793 P/2005 R2 (Van Ness),e,10.2419,312.6982,3.1138,3.425585,0.1554540,0.37954169,184.6975,05/14.0/2008,2000,g 10.5,4.0 # From MPC 57793 C/2005 R4 (LINEAR),e,164.0135,63.7687,6.8106,1415,0.0000185,0.99633368,0.0000,03/07.2654/2006,2000,g 7.0,4.0 # From MPC 55978 P/2005 RV25 (LONEOS-Christensen),e,9.8830,246.9178,191.5186,4.325265,0.1095683,0.16613543,60.7945,05/14.0/2008,2000,g 9.5,4.0 # From MPC 54987 P/2005 S2 (Skiff),e,3.1403,161.2349,229.7347,7.972333,0.0437851,0.19756392,30.0629,05/14.0/2008,2000,g 7.5,4.0 # From MPC 60464 C/2005 S4 (McNaught),e,107.9603,318.2916,31.4994,4426,0.0000033,0.99867812,0.0000,07/19.0815/2007,2000,g 5.0,4.0 # From MPC 61994 P/2005 SB216 (LONEOS),e,24.1028,1.6802,83.5425,7.111247,0.0519739,0.46315365,23.8001,05/14.0/2008,2000,g 12.0,2.0 # From MPC 57947 C/2005 YW (LINEAR),e,40.7233,302.0812,234.7923,195.9304,0.0003594,0.98981693,0.0000,12/07.7818/2006,2000,g 10.0,4.0 # From MPC 61994 C/2006 E1 (McNaught),h,01/07.0858/2007,83.1920,95.0307,232.8304,1.001994,6.041523,2000,6.0,4.0 # From MPC 60465 P/2006 F1 (Kowalski),e,21.2730,124.7591,186.8918,4.682915,0.0972590,0.12032682,8.1659,05/14.0/2008,2000,g 8.0,4.0 # From MPC 62270 C/2006 K1 (McNaught),h,07/20.6047/2007,53.8748,72.1169,296.4453,1.002056,4.425501,2000,7.5,4.0 # From MPC 61436 C/2006 K3 (McNaught),h,03/13.3186/2007,92.6127,49.3978,328.0570,1.000822,2.501033,2000,8.0,4.0 # From MPC 62270 C/2006 K4 (NEAT),e,111.3446,116.6036,233.6229,1443,0.0000180,0.99778971,0.0000,11/29.3682/2007,2000,g 6.0,4.0 # From MPC 60664 C/2006 L2 (McNaught),h,11/20.2766/2006,101.0136,239.2520,48.0605,1.001192,1.994362,2000,9.0,4.0 # From MPC 60664 C/2006 M1 (LINEAR),e,54.8695,231.6160,122.8982,158.5748,0.0004936,0.97757430,0.0000,02/13.9858/2007,2000,g 8.5,4.0 # From MPC 62270 C/2006 OF2 (Broughton),h,09/15.6845/2008,30.1700,318.5089,95.6120,1.000739,2.431414,2000,5.5,4.0 # From MPC 59042 C/2006 P1 (McNaught),e,77.8349,267.4158,156.0002,5573,0.0000024,0.99996928,0.0000,01/12.6880/2007,2000,g 6.0,4.0 # From MPC 61994 C/2006 Q1 (McNaught),e,59.0463,199.5469,344.3785,17245,0.0000004,0.99983975,0.0000,07/03.8507/2008,2000,g 5.0,4.0 # From MPC 59042 P/2006 R2 (Christensen),e,16.3160,139.1347,188.9705,4.171146,0.1156967,0.27126943,80.7923,05/14.0/2008,2000,g 11.0,4.0 # From MPC 59875 C/2006 S2 (LINEAR),h,05/07.2178/2007,98.9811,113.8931,166.3235,1.001317,3.161227,2000,10.0,4.0 # From MPC 61702 C/2006 S3 (LONEOS),e,166.0304,38.3357,140.0059,11458,0.0000008,0.99955114,0.0000,04/17.3803/2012,2000,g 2.0,4.0 # From MPC 60465 C/2006 S5 (Hill),e,10.1315,281.5627,182.1017,97.04656,0.0010309,0.97289604,0.0000,12/09.7241/2007,2000,g 8.0,4.0 # From MPC 58538 P/2006 T1 (Levy),e,18.3351,279.7676,179.6796,3.024681,0.1873634,0.67082703,109.5967,05/14.0/2008,2000,g 10.5,4.0 # From MPC 59596 P/2006 U5 (Christensen),e,3.4308,5.0929,98.3586,3.528077,0.1487295,0.34074412,71.5763,05/14.0/2008,2000,g 12.5,4.0 # From MPC 60465 C/2006 U6 (Spacewatch),e,84.8779,180.1853,276.5989,2017,0.0000109,0.99876151,0.0000,06/05.4690/2008,2000,g 8.0,4.0 # From MPC 62580 C/2006 V1 (Catalina),e,31.1218,335.7048,253.4358,273.4381,0.0002180,0.99021789,0.0000,11/26.5798/2007,2000,g 8.0,4.0 # From MPC 60097 C/2006 VZ13 (LINEAR),h,08/10.8926/2007,134.7923,66.0319,174.1268,1.000293,1.015420,2000,10.5,4.0 # From MPC 61436 C/2006 W3 (Christensen),h,07/06.5571/2009,127.0741,113.5700,133.4920,1.000069,3.126749,2000,5.0,4.0 # From MPC 59875 C/2006 X1 (LINEAR),h,03/06.1227/2006,42.6159,255.2432,101.3027,1.001185,6.126119,2000,7.0,4.0 # From MPC 62270 C/2006 XA1 (LINEAR),e,30.6307,318.6571,187.4391,245.5839,0.0002561,0.99265106,0.0000,07/21.9057/2007,2000,g 10.0,4.0 # From MPC 59043 C/2006 YC (Catalina-Christensen),e,69.5824,154.2943,335.4732,10048,0.0000010,0.99950768,0.0000,09/11.3933/2006,2000,g 8.0,4.0 # From MPC 61178 C/2007 B2 (Skiff),e,27.4958,14.8697,206.0001,720.2217,0.0000510,0.99586947,0.0000,08/20.8605/2008,2000,g 6.0,4.0 # From MPC 60922 P/2007 C2 (Catalina),e,8.6744,276.1173,179.4413,7.027660,0.0529039,0.46223123,13.3589,05/14.0/2008,2000,g 10.0,4.0 # From MPC 61436 C/2007 D1 (LINEAR),h,06/19.0586/2007,41.4989,171.0855,340.1517,1.000281,8.793392,2000,3.5,4.0 # From MPC 61436 C/2007 D3 (LINEAR),e,45.9249,148.4268,309.0844,653.7509,0.0000590,0.99203261,0.0000,05/27.6139/2007,2000,g 7.5,4.0 # From MPC 60664 C/2007 E2 (Lovejoy),e,95.8827,232.4410,340.5476,1429,0.0000182,0.99923483,0.0000,03/27.4834/2007,2000,g 9.5,4.0 # From MPC 61178 C/2007 F1 (LONEOS),h,10/28.7562/2007,116.0852,172.8898,153.7045,1.000207,0.402396,2000,10.0,4.0 # From MPC 62270 C/2007 G1 (LINEAR),h,11/16.3095/2008,88.3442,78.9970,223.9835,1.001973,2.647054,2000,5.5,4.0 # From MPC 62270 P/2007 H1 (McNaught),e,11.8737,144.3715,202.6375,3.668757,0.1402573,0.37823379,37.9089,05/14.0/2008,2000,g 10.0,4.0 # From MPC 60280 P/2007 H3 (Garradd),e,25.2158,263.6557,350.1082,3.499653,0.1505451,0.47734562,41.0633,05/14.0/2008,2000,g 14.0,4.0 # From MPC 62581 C/2007 JA21 (LINEAR),h,11/14.7438/2006,89.8387,65.5242,93.7521,1.001438,5.369806,2000,8.0,4.0 # From MPC 60664 C/2007 K1 (Lemmon),e,108.4265,294.6496,52.0846,433.4896,0.0001092,0.97868582,0.0000,05/10.0514/2007,2000,g 6.0,4.0 # From MPC 60665 C/2007 K3 (Siding Spring),h,04/21.7088/2008,16.2990,263.2575,23.5775,1.001014,2.050944,2000,9.5,4.0 # From MPC 60281 C/2007 K4 (Gibbs),h,05/03.3475/2007,98.5900,68.5109,162.3499,1.001306,3.527004,2000,10.5,4.0 # From MPC 60465 C/2007 K6 (McNaught),e,105.0991,298.0835,337.1089,215.5268,0.0003115,0.98407466,0.0000,07/01.2887/2007,2000,g 11.0,4.0 # From MPC 60465 C/2007 M1 (McNaught),e,139.7304,326.8137,52.6626,4253,0.0000036,0.99824290,0.0000,08/11.8099/2008,2000,g 6.0,4.0 # From MPC 61437 C/2007 M2 (Catalina),e,80.9461,357.2825,220.6723,4708,0.0000031,0.99924786,0.0000,12/08.5782/2008,2000,g 8.0,4.0 # From MPC 62581 C/2007 M3 (LINEAR),e,161.7417,41.6676,125.7196,167.0283,0.0004566,0.97923481,0.0000,09/04.2906/2007,2000,g 9.5,4.0 # From MPC 62581 C/2007 N3 (Lulin),h,01/10.6127/2009,178.3719,338.4974,136.8396,1.000227,1.211705,2000,6.5,4.0 # From MPC 60465 C/2007 O1 (LINEAR),h,06/03.2013/2007,24.3852,116.2346,159.3853,1.003962,2.876756,2000,10.0,4.0 # From MPC 61437 C/2007 Q3 (Siding Spring),e,65.6495,149.4233,2.1227,16805,0.0000005,0.99986606,0.0000,10/07.3570/2009,2000,g 4.5,4.0 # From MPC 62270 P/2007 R1 (Larson),e,7.8759,181.6634,175.1807,6.026615,0.0666184,0.27782838,17.5823,05/14.0/2008,2000,g 8.0,4.0 # From MPC 60927 P/2007 S1 (Zhao),e,5.9725,141.6164,245.3891,3.798423,0.1331371,0.34331170,359.9064,12/06.0/2007,2000,g 13.0,4.0 # From MPC 62270 C/2007 S2 (Lemmon),e,16.8630,296.2532,210.4260,12.54591,0.0221795,0.55693205,357.2615,05/14.0/2008,2000,g 6.5,4.0 # From MPC 62270 C/2007 T1 (McNaught),e,117.6426,111.4332,233.7592,4386,0.0000034,0.99977917,0.0000,12/12.5334/2007,2000,g 10.5,4.0 # From MPC 61703 P/2007 T4 (Gibbs),e,23.8728,37.2266,42.5136,5.252521,0.0818752,0.61756183,24.4229,05/14.0/2008,2000,g 13.0,4.0 # From MPC 61437 C/2007 T5 (Gibbs),e,45.6151,109.8429,34.4057,46.75819,0.0030826,0.91339827,359.9686,05/14.0/2008,2000,g 8.0,4.0 # From MPC 62582 P/2007 T6 (Catalina),e,22.1508,102.6329,335.8446,4.489316,0.1036177,0.50282738,27.8106,05/14.0/2008,2000,g 12.5,4.0 # From MPC 61704 C/2007 U1 (LINEAR),h,08/07.0232/2008,157.7885,50.0403,0.9220,1.001923,3.329267,2000,9.0,4.0 # From MPC 61437 P/2007 V1 (Larson),e,10.7890,8.1810,51.4466,4.968180,0.0890037,0.46125462,14.0204,05/14.0/2008,2000,g 12.0,4.0 # From MPC 61437 P/2007 V2 (Hill),e,2.4707,99.8672,278.5386,4.068732,0.1200924,0.31802425,34.5878,05/14.0/2008,2000,g 13.0,4.0 # From MPC 61994 P/2007 VQ11 (Catalina),e,12.3251,164.0538,277.6735,5.410522,0.0783151,0.50214963,7.0785,05/14.0/2008,2000,g 12.0,4.0 # From MPC 61706 C/2007 VO53 (Spacewatch),e,87.0201,59.7525,75.0008,5648,0.0000023,0.99914213,0.0000,04/26.6855/2010,2000,g 7.0,4.0 # From MPC 62271 C/2007 W1 (Boattini),h,06/24.8880/2008,9.8892,334.5303,306.5504,1.000137,0.849650,2000,9.5,4.0 # From MPC 62582 C/2007 W3 (LINEAR),h,06/02.8069/2008,78.6728,73.0684,112.6335,1.000050,1.776512,2000,12.0,4.0 # From MPC 62271 C/2007 Y1 (LINEAR),h,03/19.3127/2008,110.1765,133.0925,357.1230,1.000336,3.340791,2000,10.5,4.0 # From MPC 62271 C/2007 Y2 (McNaught),e,98.5030,303.4619,257.6879,1141,0.0000256,0.99631077,0.0000,04/08.4077/2008,2000,g 9.0,4.0 # From MPC 62271 C/2008 A1 (McNaught),h,09/29.1343/2008,82.5507,277.8856,348.4818,1.000267,1.073045,2000,6.5,4.0 # From MPC 62271 P/2008 A2 (LINEAR),e,19.1588,315.5218,233.1676,3.194091,0.1726566,0.59130566,354.9867,05/14.0/2008,2000,g 15.5,4.0 # From MPC 62582 C/2008 C1 (Chen-Gao),h,04/16.8491/2008,61.7850,307.7819,180.9264,1.000035,1.262359,2000,10.0,4.0 # From MPC 62583 C/2008 E1 (Catalina),e,35.0383,189.0391,269.9134,10.67469,0.0282599,0.54755720,357.4752,05/14.0/2008,2000,g 7.0,4.0 # From MPEC 2008-J52 C/2008 E3 (Garradd),p,08/01.3169/2008,105.0699,217.9974,5.532246,105.6725,2000,6.0,4.0 # From MPEC 2008-J53 C/2008 G1 (Gibbs),e,72.8687,215.9218,63.6956,386.9336,0.0001295,0.98968729,0.0000,01/11.9524/2009,2000,g 9.5,4.0 # From MPEC 2008-H20 P/2008 G2 (Shoemaker),e,24.7670,92.9467,191.9497,5.955862,0.0678090,0.50714331,337.5570,05/14.0/2008,2000,g 10.0,4.0 # From MPEC 2008-J54 C/2008 H1 (LINEAR),e,75.497,34.616,96.084,53.2538,0.002536,0.9481524,359.999,03/16.0/2008,2000,g 10.5,4.0 # From MPEC 2008-J55 C/2008 J1 (Boattini),p,07/13.387/2008,61.854,68.253,1.72402,273.511,2000,10.0,4.0 # From MPEC 2008-J50 C/2008 J2 (Beshore),p,11/09.569/2008,17.577,250.952,1.37158,86.806,2000,8.0,4.0